TimeEDT,TemperatureF,Dew PointF,Humidity,Sea Level PressureIn,VisibilityMPH,Wind Direction,Wind SpeedMPH,Gust SpeedMPH,PrecipitationIn,Events,Conditions,WindDirDegrees,DateUTC
12:14 AM,39.2,30.2,70,30.14,10.0,East,10.4,-,N/A,,Overcast,80,2014-04-03 04:14:00
12:33 AM,39.2,30.2,70,30.14,10.0,East,9.2,-,N/A,,Overcast,90,2014-04-03 04:33:00
12:53 AM,38.8,29.1,68,30.14,10.0,ENE,12.7,-,N/A,,Overcast,70,2014-04-03 04:53:00
1:14 AM,39.2,28.4,65,30.14,10.0,East,13.8,-,N/A,,Overcast,80,2014-04-03 05:14:00
1:33 AM,37.4,28.4,70,30.15,10.0,East,12.7,-,N/A,,Overcast,80,2014-04-03 05:33:00
1:53 AM,37.4,28.4,70,30.14,10.0,East,17.3,-,N/A,,Overcast,80,2014-04-03 05:53:00
2:14 AM,37.4,28.4,70,30.13,10.0,East,16.1,-,N/A,,Overcast,80,2014-04-03 06:14:00
2:33 AM,37.4,30.2,75,30.13,10.0,East,15.0,-,N/A,,Overcast,80,2014-04-03 06:33:00
2:53 AM,37.4,30.2,75,30.12,10.0,East,13.8,-,N/A,,Overcast,90,2014-04-03 06:53:00
3:13 AM,37.4,30.2,75,30.11,10.0,East,13.8,-,N/A,,Overcast,80,2014-04-03 07:13:00
3:33 AM,35.6,28.4,75,30.11,10.0,East,16.1,-,N/A,,Mostly Cloudy,90,2014-04-03 07:33:00
3:54 AM,36.0,29.1,76,30.10,10.0,East,15.0,-,N/A,,Mostly Cloudy,90,2014-04-03 07:54:00
4:13 AM,35.6,28.4,75,30.10,10.0,East,16.1,-,N/A,,Overcast,80,2014-04-03 08:13:00
4:33 AM,35.6,28.4,75,30.11,10.0,East,17.3,-,N/A,,Overcast,80,2014-04-03 08:33:00
4:54 AM,35.6,28.4,75,30.09,10.0,East,19.6,-,N/A,,Overcast,80,2014-04-03 08:54:00
5:13 AM,35.6,26.6,70,30.11,10.0,East,13.8,-,N/A,,Overcast,90,2014-04-03 09:13:00
5:33 AM,35.6,26.6,70,30.12,10.0,East,16.1,-,N/A,,Overcast,90,2014-04-03 09:33:00
5:54 AM,36.0,24.1,62,30.11,10.0,East,17.3,-,N/A,,Overcast,90,2014-04-03 09:54:00
6:13 AM,35.6,24.8,65,30.11,10.0,East,17.3,-,N/A,,Overcast,90,2014-04-03 10:13:00
6:33 AM,35.6,24.8,65,30.12,10.0,East,17.3,-,N/A,,Overcast,80,2014-04-03 10:33:00
6:53 AM,35.6,23.0,60,30.10,10.0,East,19.6,-,N/A,,Overcast,90,2014-04-03 10:53:00
7:13 AM,35.6,21.2,56,30.09,10.0,East,19.6,-,N/A,,Overcast,90,2014-04-03 11:13:00
7:34 AM,35.6,23.0,60,30.09,10.0,East,19.6,-,N/A,,Overcast,90,2014-04-03 11:34:00
7:53 AM,35.6,24.8,65,30.11,10.0,ENE,18.4,-,N/A,,Overcast,70,2014-04-03 11:53:00
8:13 AM,35.6,24.8,65,30.10,10.0,East,17.3,-,N/A,,Mostly Cloudy,80,2014-04-03 12:13:00
8:34 AM,35.6,24.8,65,30.07,10.0,East,20.7,-,N/A,Rain,Light Rain,80,2014-04-03 12:34:00
8:53 AM,35.6,24.8,65,30.06,10.0,East,16.1,-,N/A,,Mostly Cloudy,80,2014-04-03 12:53:00
9:14 AM,35.6,26.6,70,30.06,10.0,East,18.4,-,N/A,,Mostly Cloudy,80,2014-04-03 13:14:00
9:34 AM,33.8,26.6,75,30.06,10.0,East,18.4,-,N/A,Rain,Light Rain,80,2014-04-03 13:34:00
9:53 AM,34.0,28.0,79,30.08,10.0,East,19.6,-,N/A,Rain,Light Rain,80,2014-04-03 13:53:00
10:14 AM,33.8,28.4,81,30.08,10.0,ENE,17.3,-,N/A,Rain,Light Rain,70,2014-04-03 14:14:00
10:34 AM,33.8,28.4,81,30.07,7.0,East,13.8,-,N/A,Rain,Light Rain,80,2014-04-03 14:34:00
10:53 AM,33.8,28.4,81,30.06,5.0,East,16.1,-,N/A,Rain,Light Rain,80,2014-04-03 14:53:00
11:14 AM,33.8,28.4,81,30.07,5.0,ENE,16.1,-,N/A,Rain,Light Rain,70,2014-04-03 15:14:00
11:33 AM,33.8,28.4,81,30.04,4.0,East,17.3,-,N/A,Rain,Rain,80,2014-04-03 15:33:00
11:53 AM,33.8,28.4,81,30.01,4.0,East,18.4,-,N/A,Rain,Rain,80,2014-04-03 15:53:00
12:14 PM,33.8,30.2,87,29.99,3.0,East,19.6,-,N/A,Rain,Rain,80,2014-04-03 16:14:00
12:33 PM,33.8,30.2,87,30.00,4.0,East,21.9,-,N/A,Rain,Rain,80,2014-04-03 16:33:00
12:53 PM,32.9,30.0,89,29.99,3.0,East,21.9,-,N/A,Rain,Rain,80,2014-04-03 16:53:00
1:03 PM,33.8,30.2,87,29.98,3.0,East,18.4,-,N/A,Rain,Rain,90,2014-04-03 17:03:00
1:34 PM,33.8,30.2,87,29.94,2.5,East,20.7,-,N/A,Rain,Heavy Rain,80,2014-04-03 17:34:00
1:53 PM,33.8,30.2,87,29.94,2.5,East,19.6,-,N/A,Rain,Heavy Rain,80,2014-04-03 17:53:00
2:14 PM,33.8,30.2,87,29.96,1.8,East,13.8,-,N/A,Rain,Heavy Rain,80,2014-04-03 18:14:00
2:34 PM,33.8,30.2,87,29.96,2.5,East,18.4,-,N/A,Rain,Rain,80,2014-04-03 18:34:00
2:50 PM,33.8,30.2,87,29.93,2.0,East,20.7,-,N/A,Rain,Rain,80,2014-04-03 18:50:00
3:14 PM,33.8,32.0,93,29.90,2.5,East,18.4,-,N/A,Rain,Rain,80,2014-04-03 19:14:00
3:34 PM,33.8,30.2,87,29.87,4.0,East,20.7,-,N/A,Rain,Light Rain,80,2014-04-03 19:34:00
3:54 PM,32.9,32.0,96,29.86,4.0,East,23.0,-,N/A,Rain,Light Rain,80,2014-04-03 19:54:00
4:13 PM,33.8,32.0,93,29.86,4.0,East,20.7,-,N/A,Rain,Light Rain,80,2014-04-03 20:13:00
4:29 PM,33.8,32.0,93,29.85,3.0,ENE,21.9,-,N/A,Rain,Rain,70,2014-04-03 20:29:00
4:54 PM,33.8,32.0,93,29.82,2.0,East,26.5,-,N/A,Rain,Rain,80,2014-04-03 20:54:00
5:14 PM,33.8,32.0,93,29.83,2.5,East,18.4,-,N/A,Rain,Rain,90,2014-04-03 21:14:00
5:34 PM,33.8,32.0,93,29.81,2.5,East,23.0,-,N/A,Rain,Rain,80,2014-04-03 21:34:00
5:54 PM,33.8,32.0,93,29.81,2.5,East,21.9,-,N/A,Rain,Rain,80,2014-04-03 21:54:00
6:14 PM,35.6,33.8,93,29.81,2.0,East,17.3,-,N/A,Rain,Light Rain,90,2014-04-03 22:14:00
6:51 PM,35.6,33.8,93,29.83,1.8,East,19.6,-,N/A,Rain,Light Rain,90,2014-04-03 22:51:00
7:14 PM,35.6,33.8,93,29.82,1.2,East,17.3,-,N/A,Rain,Light Rain,90,2014-04-03 23:14:00
7:38 PM,35.6,33.8,93,29.80,1.8,East,13.8,-,N/A,Rain,Light Rain,90,2014-04-03 23:38:00
8:14 PM,35.6,35.6,100,29.80,7.0,East,12.7,-,N/A,,Overcast,90,2014-04-04 00:14:00
8:34 PM,35.6,35.6,100,29.81,7.0,East,13.8,-,N/A,,Overcast,80,2014-04-04 00:34:00
8:53 PM,34.9,34.0,97,29.82,3.0,East,17.3,-,N/A,Rain,Light Rain,80,2014-04-04 00:53:00
9:10 PM,35.6,33.8,93,29.82,2.0,East,16.1,-,N/A,Rain,Light Rain,80,2014-04-04 01:10:00
9:34 PM,33.8,33.8,100,29.81,2.5,East,17.3,-,N/A,Rain,Light Rain,80,2014-04-04 01:34:00
9:53 PM,33.8,33.8,100,29.80,2.5,East,17.3,-,N/A,,Overcast,80,2014-04-04 01:53:00
10:13 PM,33.8,33.8,100,29.81,2.5,East,19.6,-,N/A,Rain,Light Rain,80,2014-04-04 02:13:00
10:34 PM,33.8,33.8,100,29.80,2.5,East,20.7,-,N/A,Rain,Light Rain,80,2014-04-04 02:34:00
11:37 PM,33.8,33.8,100,29.78,2.5,East,15.0,-,N/A,Rain,Light Rain,90,2014-04-04 03:37:00